Location: Unspecified
(37.6100°N, 2.7800°W)
Time: 16:58:44
(UTC+00:00)

N. Korean satellite - Visible Passes

Search period start: 20 November 2017 00:00
Search period end: 30 November 2017 00:00
Orbit: 460 x 514 km, 97.2° (Epoch: 20 November)

Date Brightness Start Highest point End Pass type
(mag) Time Alt. Az. Time Alt. Az. Time Alt. Az.
20 Nov 9.8 06:09:26 10° NE 06:12:11 19° E 06:14:55 10° SE visible
20 Nov 6.5 18:16:17 10° S 18:19:45 85° WSW 18:23:19 10° NNW visible
21 Nov 6.8 17:53:01 10° SSE 17:56:20 42° ENE 17:59:43 10° N visible
22 Nov 7.8 17:30:16 10° ESE 17:33:00 21° ENE 17:35:44 10° NNE visible
22 Nov 9.4 19:03:54 10° SW 19:06:25 19° W 19:08:59 10° NW visible
23 Nov 8.5 06:31:50 10° NNE 06:35:22 37° E 06:38:52 10° SSE visible
23 Nov 8.0 18:39:33 10° SSW 18:42:50 38° W 18:46:11 10° NNW visible
24 Nov 9.8 06:09:02 10° NE 06:11:47 19° E 06:14:32 10° SE visible
24 Nov 6.5 18:15:48 10° S 18:19:19 86° W 18:22:55 10° NNW visible
25 Nov 6.8 17:52:32 10° SSE 17:55:53 42° ENE 17:59:18 10° N visible
26 Nov 7.8 17:29:47 10° ESE 17:32:31 21° ENE 17:35:19 10° NNE visible
26 Nov 9.4 19:03:23 10° SW 19:05:58 19° W 19:08:35 10° NW visible
27 Nov 8.5 06:31:24 10° NNE 06:34:56 37° E 06:38:26 10° SSE visible
27 Nov 8.0 18:39:02 10° SSW 18:42:21 38° W 18:45:45 10° NNW visible
28 Nov 9.8 06:08:35 10° NE 06:11:20 19° E 06:14:04 10° SE visible
28 Nov 6.5 18:15:18 10° S 18:18:50 86° WSW 18:22:28 10° NNW visible
29 Nov 6.9 17:52:00 10° SSE 17:55:23 43° ENE 17:58:51 10° N visible
